Regional Weather Roundup
Issued by NWS

Home | Current Version | Previous Version | Graphics & Text | Print | Product List | Glossary On
Versions: 1 2 3 4 5 6 7 8 9 10 11 12 13 14 15 16 17 18 19 20 21 22 23 24 25 26 27 28 29 30 31 32 33 34 35 36 37 38 39 40 41 42 43 44 45 46 47 48 49 50
000
ASUS45 KSLC 200910
RWRUT

UTAH REGIONAL WEATHER ROUNDUP
NATIONAL WEATHER SERVICE SALT LAKE CITY UT
300 AM MDT WED SEP 20 2017

UTZ001>011-023>025-201000-

NORTHERN UTAH

CITY           SKY/WX    TMP DP  RH WIND       PRES   REMARKS
BRIGHAM CITY   CLEAR     41  37  83 CALM      29.96S
HILL AFB       CLEAR     44  33  67 E14       29.95S
LOGAN          MOCLDY    39  36  89 CALM      29.95S
OGDEN          CLEAR     44  37  76 S6        29.94S
SALT LAKE CITY PTCLDY    50  38  63 SE6       29.94S
TOOELE VALLEY  CLEAR     43  36  75 S6        29.95S
WENDOVER       NOT AVBL
HEBER CITY     CLEAR     36  34  93 CALM      29.98S
WEST JORDAN    CLEAR     44  37  77 CALM      29.96S

$$

UTZ011>015-024>027-201000-

CENTRAL/NORTHEAST UTAH

CITY           SKY/WX    TMP DP  RH WIND       PRES   REMARKS
PROVO AIRPORT  CLEAR     43  40  89 CALM      29.96S
MOAB/CANYONLAN CLEAR     56  35  45 CALM      29.86S
DELTA          CLEAR     43  36  75 N5        29.94F
PRICE          PTCLDY    51  30  44 NW10      29.95F
ROOSEVELT      CLOUDY    50  37  62 CALM      30.00R
VERNAL         CLOUDY    50  37  61 NE6       29.97F

$$

UTZ013>016-019>022-027-201000-

SOUTHERN UTAH

CITY           SKY/WX    TMP DP  RH WIND       PRES   REMARKS
BRYCE CANYON   CLEAR     52  33  48 SW13      30.06S
CEDAR CITY     CLEAR     51  39  63 SE6       29.95S
MILFORD        CLEAR     49  34  56 CALM      29.94S
ST GEORGE      SUNNY     69  37  30 SE12      29.83R
HANKSVILLE     CLEAR     59  36  41 NE8       29.88S
BLANDING         N/A     60  31  33 SW5       30.06R

$$

REGIONAL REPORTS     COLORADO/ARIZONA

CITY           SKY/WX    TMP DP  RH WIND       PRES   REMARKS
CRAIG, CO      CLOUDY    40  35  83 NE5       30.04S
GRAND JUNCTION CLEAR     53  35  50 NE6       29.90R
RIFLE, CO      CLOUDY    52  37  56 CALM      29.96S
MONTROSE, CO   CLEAR     59  29  31 N7        29.96S
CORTEZ, CO     CLEAR     54  24  31 CALM      30.01R
PAGE, AZ       CLEAR     72  38  29 SW6       29.89S
GRAND CANYON   CLEAR     41  30  65 NE3       30.09F
KINGMAN, AZ    CLEAR     60  38  43 S6        29.88S
FLAGSTAFF, AZ  CLEAR     50  30  46 VRB3      30.12S

$$

REGIONAL REPORTS    NEVADA/IDAHO/WYOMING

CITY           SKY/WX    TMP DP  RH WIND       PRES   REMARKS
LAS VEGAS, NV  CLEAR     75  41  29 S10       29.76R
ELY, NY        CLEAR     36  23  59 CALM      30.01S
ELKO, NV       CLEAR     38  22  52 CALM      29.94F
POCATELLO, ID  MOCLDY    45  30  55 S10       29.91F
BURLEY, ID     CLOUDY    42  32  67 SW9       29.89F
FORT BRIDGER,    N/A     37  31  79 SW8       30.03S WCI  30
EVANSTON, WY   CLOUDY    35  28  75 SW7       30.01R WCI  29
ROCK SPRINGS,  CLOUDY    35  30  82 SW8       30.00F WCI  29
KEMMERER, WY     N/A     32  28  86 SW5       30.00S WCI  27

$$



USA.gov is the U.S. government's official web portal to all federal, state and local government web resources and services.